Back to catalog

ATLAS 5 CENTAUR DEB

AliveHEO
NORAD 46647·DEBRIS·🇺🇸 United States

Launched Sep 17, 2014 from Cape Canaveral Space Force Station

Loading…

Next Passes (next 24 hours)

TLE

FreshSource: Space-Track

Epoch: Sep 13, 2026, 22:45 UTC

1 46647U 14055CX  26256.94834349 -.00000097  00000-0  00000-0 0  9994
2 46647  20.1136 139.1218 4763486 171.6981 200.4354  1.84054057 39811

Track ATLAS 5 CENTAUR DEB in real time with AllMySat

Download on the App Store